Starlink 6144

operational
NORAD ID: 56894 Int'l Des: 2023-083 Owner: SPXS Country: US Constellation: starlink
LEOCIRCULAR

Starlink 6144について

説明を読み込み中...

リアルタイム位置

3D地球を読み込み中...

次回通過

高度履歴

Altitude vs Time

uPlot chart will show altitude changes over time

軌道要素

1 56894U 23083U 25349.86654034 .00000860 00000-0 78702-4 0 9999
2 56894 43.0021 177.0406 0001217 261.1242 98.9462 15.02533331139184
Epoch: Dec 15, 2025 • Age: 25 hours

現在のステータス

高度 566.3 km
速度 7.58 km/s
衛星直下点 -29.48°S, 23.26°W
打ち上げ日 Jun 12, 2023
運用期間 2.5 years
タイプ internet

技術仕様

分類 Payload
質量 305.00 kg
乾燥質量 290.00 kg
総質量 305.00 kg
長さ 0.20 m
直径 2.80 m
スパン 9.00 m
形状 Box + pan
製造者 SPXS
バスタイプ Starlink
フェーズステータス In Orbit
所有者/国 SPXS/US

大規模コンステレーション

Loading constellations...